Weather Roundup
Issued by NWS Chicago, IL

Home | Current Version | Previous Version | Text Only | Print | Product List | Glossary On
Versions: 1 2 3 4 5 6 7 8 9 10 11 12 13 14 15 16 17 18 19 20 21 22 23 24 25 26 27 28 29 30 31 32 33 34 35 36 37 38 39 40 41 42 43 44 45 46 47 48 49 50
806
NZUS59 KLOT 062112
HRRLOT

CHICAGO AREA WEATHER ROUNDUP
NATIONAL WEATHER SERVICE CHICAGO/ROMEOVILLE IL
300 PM CST TUE DEC 06 2016

NOTE: "FAIR" INDICATES FEW OR NO CLOUDS BELOW 12,000 FEET WITH NO
SIGNIFICANT WEATHER AND/OR OBSTRUCTIONS TO VISIBILITY.

* THESE STATIONS ARE NOT UNDER NWS QUALITY CONTROL. THEY ALSO MAY NOT
  REPORT WEATHER SUCH AS PRECIPITATION OR FOG.

ILZ005-006-012>014-019>023-062200-
NORTHEAST ILLINOIS

CITY           SKY/WX    TMP DP  RH WIND       PRES   REMARKS
OHARE          CLOUDY    35  32  88 W16       29.78S WCI  25
MIDWAY         CLOUDY    36  31  82 W8        29.80R
AURORA         CLOUDY    35  31  85 W16G25    29.81R WCI  25
LANSING*       CLOUDY    35  33  94 W12       29.82R FOG     WCI  26
JOLIET*        CLOUDY    36  34  94 W8        29.83R FOG
WAUKEGAN       CLOUDY    36  32  85 W7        29.75S
DUPAGE AIRPORT CLOUDY    34  31  88 W14       29.79R WCI  25
WHEELING       CLOUDY    35  32  88 W9        29.79R WCI  28
KANKAKEE*      CLOUDY    34  32  94 W9        29.84R FOG     WCI  26
MORRIS*        CLOUDY    34  33  96 W18       29.83R FOG     WCI  23
LEWIS AIRPORT* CLOUDY    34  34 100 W10       29.81R FOG     WCI  26
NORTHERLY ISL    N/A     36  32  85 W10         N/A
$$

WIZ051-052-058>065-066-070>072-062200-
SOUTHEAST WISCONSIN

CITY           SKY/WX    TMP DP  RH WIND       PRES   REMARKS
MILWAUKEE      CLOUDY    37  31  78 W10       29.74S
KENOSHA*       CLOUDY    35  32  88 W12       29.75R WCI  27
RACINE*        CLOUDY    36  31  82 W13       29.76S
BURLINGTON     PTSUNNY   35  32  90 W9G16     29.75R WCI  27
WAUKESHA       CLOUDY    32  30  93 W12G17    29.74R FOG     WCI  23
WEST BEND      CLOUDY    34  32  93 W10       29.71R WCI  26
$$

INZ001>003-010>013-019-020-062200-
NORTHWEST INDIANA

CITY           SKY/WX    TMP DP  RH WIND       PRES   REMARKS
GARY*          CLOUDY    37  34  87 W12       29.77S FOG
MICHIGAN CITY* NOT AVBL
RENSSELAER*    NOT AVBL
VALPARAISO     CLOUDY    36  31  82 W14       29.80R
$$

LMZ740>746-062200-
SOUTHERN LAKE MICHIGAN

STATION/POSITION TIME  SKY/WX   TEMP WIND        PRES    VSBY
                                AIR  DIR/SP/G
                 (UTC)          (F)  (DEG/KT/KT) (MB)    (MI)
HARRISON CRIB    2040            37  280/ 21/ 28   N/A
BURNHAM HARBOR   2100            36  270/ 10/ 18   N/A
CALUMET HARBOR   2042            36  270/  7/ 14 1008.8R
BURNS HARBOR     2040            39  280/ 21/ 25 1008.8R
MICHIGAN CITY    2040            39  240/ 27/ 30   N/A
$$

ABBREVIATIONS USED IN REMARKS
   TC - TEMPERATURE IN CELSIUS
  WCI - WIND CHILL INDEX
   HX - HEAT INDEX
  VSB - VISIBILITY
$$




USA.gov is the U.S. government's official web portal to all federal, state and local government web resources and services.